Flag for Congo Weather past 2 weeks in Brazzaville, Congo

Now
72 °F

Clear.


Feels Like: 67 °F
Forecast: 74 / 93 °F
Wind: 3 mph from West

Location: Brazzaville / Maya-Maya

Current Time: Apr 21, 2015 at 4:40:46 AM

Latest Report: Apr 21, 2015 at 3:00 AM


Visibility: 5 mi

Pressure: 29.89 "Hg

Humidity: 94%

Dew point: 70 °F

Location of BrazzavilleLocation

Historic Weather in Brazzaville — Graph

°F

Brazzaville temperature yesterday

Maximum temperature yesterday: 81 °F (at 9:00 AM)
Minimum temperature yesterday: 73 °F (at 3:00 AM)
Average temperature yesterday: 75 °F

Past Weeks' High & Low Weather Summary

 TemperatureHumidityPressure
High95 °F (Apr 6, 3:00 PM)100% (Apr 13, 6:00 AM)30.01 "Hg (Apr 13, 6:00 AM)
Low70 °F (Apr 6, 5:00 AM)32% (Apr 7, 1:00 PM)29.77 "Hg (Apr 6, 4:00 PM)
Average80 °F75%29.91 "Hg
* Reported Apr 6 3:00 AM — Apr 21 3:00 AM, Brazzaville, Weather by CustomWeather, © 2015

Note: Actual official high and low records may vary slightly from our data, if they occured in-between our weather recording intervals... More about our weather records

Advertising

Brazzaville weather history for previous 24 hours

 ConditionsComfort  
Time TempWeatherWind HumidityBarometerVisibility
3:00 AM
Tue, Apr 21
72 °FClear.3 mph94%29.89 "Hg5 mi
2:00 AM72 °FPassing clouds.3 mph94%29.89 "Hg5 mi
1:00 AM72 °FClear.3 mph94%29.89 "Hg5 mi
12:00 AM72 °FClear.2 mph94%29.92 "Hg5 mi
11:00 PM
Mon, Apr 20
73 °FClear.3 mph89%29.95 "Hg5 mi
10:00 PM73 °FClear.3 mph89%29.92 "Hg4 mi
9:00 PM73 °FClear.2 mph89%29.92 "Hg4 mi
8:00 PM73 °FClear.2 mph94%29.89 "Hg5 mi
7:00 PM73 °FClear.3 mph94%29.86 "Hg5 mi
6:00 PM75 °FPassing clouds.5 mph83%29.83 "HgN/A
5:00 PM77 °FPassing clouds.1 mph79%29.86 "HgN/A
4:00 PM75 °FScattered clouds.2 mph83%29.86 "HgN/A
3:00 PM75 °FScattered clouds.3 mph83%29.89 "HgN/A
2:00 PM73 °FLight rain. Broken clouds.5 mph89%29.92 "Hg4 mi
1:00 PM75 °FRain. Broken clouds.8 mph89%29.98 "Hg2 mi
12:53 PM75 °FRain. Broken clouds.8 mph89%29.98 "Hg2 mi
12:00 PM79 °FPartly sunny.9 mph79%29.98 "HgN/A
11:00 AM79 °FPartly sunny.6 mph84%30.01 "HgN/A
10:00 AM81 °FPartly sunny.3 mph74%30.01 "Hg5 mi
9:00 AM81 °FScattered clouds.6 mph74%29.98 "Hg5 mi
8:00 AM79 °FScattered clouds.6 mph79%29.98 "Hg5 mi
7:00 AM75 °FPassing clouds.No wind89%29.95 "Hg5 mi
6:00 AM73 °FPassing clouds.1 mph94%29.92 "HgN/A
5:00 AM73 °FPassing clouds.2 mph94%29.92 "HgN/A
4:00 AM73 °FPassing clouds.3 mph94%29.89 "HgN/A
Weather by CustomWeather, © 2015

See weather overviewHow to use our weather pages